| time (UTC) | temp C | wind direction | speed KPH | gust KPH | rain 1hr cm | rain 24hr cm | rain mn cm | humidity % | barometer mb |
| 20260507144244 | 16 | 181 | 8.0 | 16.1 | 0.00 | 0.00 | 0.00 | 30 | 1011.8 |
| 20260507143344 | 16 | 130 | 9.7 | 16.1 | 0.00 | 0.00 | 0.00 | 31 | 1012.0 |
| 20260507142443 | 16 | 82 | 8.0 | 19.3 | 0.00 | 0.00 | 0.00 | 32 | 1012.0 |
| 20260507141544 | 15 | 124 | 6.4 | 12.9 | 0.00 | 0.00 | 0.00 | 33 | 1012.1 |
| 20260507134844 | 14 | 151 | 12.9 | 19.3 | 0.00 | 0.00 | 0.00 | 35 | 1012.1 |
| 20260507133944 | 14 | 185 | 11.3 | 20.9 | 0.00 | 0.00 | 0.00 | 37 | 1012.2 |
| 20260507133044 | 14 | 173 | 14.5 | 24.1 | 0.00 | 0.00 | 0.00 | 40 | 1012.3 |
| 20260507132144 | 13 | 166 | 14.5 | 22.5 | 0.00 | 0.00 | 0.00 | 40 | 1012.4 |
| 20260507130344 | 13 | 153 | 16.1 | 27.4 | 0.00 | 0.00 | 0.00 | 40 | 1012.7 |
| 20260507125444 | 13 | 174 | 17.7 | 25.7 | 0.00 | 0.00 | 0.00 | 40 | 1012.5 |
| 20260507124544 | 13 | 169 | 16.1 | 24.1 | 0.00 | 0.00 | 0.00 | 40 | 1012.3 |
| 20260507123644 | 14 | 176 | 14.5 | 27.4 | 0.00 | 0.00 | 0.00 | 40 | 1012.8 |
| 20260507122744 | 13 | 166 | 16.1 | 27.4 | 0.00 | 0.00 | 0.00 | 40 | 1012.6 |
| 20260507121844 | 14 | 150 | 14.5 | 27.4 | 0.00 | 0.00 | 0.00 | 41 | 1012.5 |
| 20260507120944 | 13 | 166 | 16.1 | 25.7 | 0.00 | 0.00 | 0.00 | 42 | 1012.5 |
| 20260507120044 | 13 | 177 | 16.1 | 22.5 | 0.00 | 0.00 | 0.00 | 42 | 1012.8 |
| 20260507115144 | 12 | 168 | 17.7 | 27.4 | 0.00 | 0.00 | 0.00 | 41 | 1012.7 |
| 20260507113344 | 12 | 166 | 12.9 | 24.1 | 0.00 | 0.00 | 0.00 | 40 | 1012.8 |
| 20260507112444 | 13 | 164 | 16.1 | 29.0 | 0.00 | 0.00 | 0.00 | 40 | 1012.7 |
| 20260507111544 | 13 | 154 | 14.5 | 25.7 | 0.00 | 0.00 | 0.00 | 38 | 1012.6 |
| 20260507105744 | 15 | 155 | 14.5 | 27.4 | 0.00 | 0.00 | 0.00 | 35 | 1012.6 |
| 20260507104844 | 15 | 152 | 17.7 | 27.4 | 0.00 | 0.00 | 0.00 | 35 | 1012.7 |
| 20260507103944 | 15 | 163 | 16.1 | 27.4 | 0.00 | 0.00 | 0.00 | 35 | 1012.5 |
| 20260507103044 | 15 | 146 | 14.5 | 29.0 | 0.00 | 0.00 | 0.00 | 37 | 1012.8 |
| 20260507102144 | 14 | 157 | 16.1 | 24.1 | 0.00 | 0.00 | 0.00 | 40 | 1012.5 |
| 20260507101244 | 13 | 169 | 19.3 | 29.0 | 0.00 | 0.00 | 0.00 | 39 | 1012.7 |
| 20260507100344 | 13 | 151 | 16.1 | 29.0 | 0.00 | 0.00 | 0.00 | 37 | 1012.7 |
| 20260507095444 | 13 | 150 | 16.1 | 25.7 | 0.00 | 0.00 | 0.00 | 38 | 1012.7 |
| 20260507093644 | 13 | 158 | 16.1 | 27.4 | 0.00 | 0.00 | 0.00 | 40 | 1012.5 |
| 20260507092744 | 13 | 161 | 16.1 | 24.1 | 0.00 | 0.00 | 0.00 | 40 | 1012.8 |
| 20260507091845 | 12 | 157 | 14.5 | 24.1 | 0.00 | 0.00 | 0.00 | 40 | 1012.7 |
| 20260507090944 | 12 | 151 | 14.5 | 27.4 | 0.00 | 0.00 | 0.00 | 41 | 1012.9 |
| 20260507090044 | 12 | 162 | 14.5 | 24.1 | 0.00 | 0.00 | 0.00 | 44 | 1012.9 |
| 20260507085144 | 12 | 167 | 14.5 | 24.1 | 0.00 | 0.00 | 0.00 | 45 | 1013.2 |
| 20260507084244 | 11 | 170 | 14.5 | 24.1 | 0.00 | 0.00 | 0.00 | 44 | 1013.2 |
| 20260506224308 | 8 | 172 | 19.3 | 25.7 | 0.00 | 0.00 | 0.00 | 58 | 1012.8 |
| 20260506221608 | 8 | 166 | 16.1 | 22.5 | 0.00 | 0.00 | 0.00 | 58 | 1012.5 |
| 20260506220708 | 9 | 168 | 16.1 | 22.5 | 0.00 | 0.00 | 0.00 | 57 | 1012.8 |
| 20260506215808 | 9 | 172 | 12.9 | 20.9 | 0.00 | 0.00 | 0.00 | 57 | 1012.7 |
| 20260506214910 | 9 | 178 | 11.3 | 17.7 | 0.00 | 0.00 | 0.00 | 56 | 1012.9 |
| 20260506214008 | 8 | 178 | 8.0 | 12.9 | 0.00 | 0.00 | 0.00 | 54 | 1013.2 |
| 20260506213108 | 8 | 170 | 6.4 | 11.3 | 0.00 | 0.00 | 0.00 | 52 | 1013.1 |
| 20260506212208 | 8 | 166 | 6.4 | 11.3 | 0.00 | 0.00 | 0.00 | 51 | 1013.0 |
| 20260506211308 | 9 | 170 | 6.4 | 11.3 | 0.00 | 0.00 | 0.00 | 50 | 1013.1 |
| 20260506210408 | 9 | 177 | 8.0 | 14.5 | 0.00 | 0.00 | 0.00 | 49 | 1013.0 |
| 20260506205508 | 9 | 178 | 9.7 | 16.1 | 0.00 | 0.00 | 0.00 | 48 | 1013.2 |
| 20260506204608 | 9 | 165 | 6.4 | 16.1 | 0.00 | 0.00 | 0.00 | 48 | 1013.2 |
| 20260506203708 | 9 | 192 | 1.6 | 6.4 | 0.00 | 0.00 | 0.00 | 48 | 1013.3 |
| 20260506202808 | 10 | 220 | 1.6 | 6.4 | 0.00 | 0.00 | 0.00 | 48 | 1013.1 |
| 20260506201908 | 10 | 199 | 1.6 | 4.8 | 0.00 | 0.00 | 0.00 | 47 | 1013.4 |
| 20260506201008 | 10 | 246 | 3.2 | 8.0 | 0.00 | 0.00 | 0.00 | 48 | 1013.4 |
| 20260506195208 | 10 | 257 | 1.6 | 4.8 | 0.00 | 0.00 | 0.00 | 47 | 1013.3 |
| 20260506164516 | 12 | 169 | 19.3 | 32.2 | 0.00 | 0.00 | 4.27 | 47 | 1009.5 |
| 20260506163616 | 11 | 171 | 20.9 | 29.0 | 0.00 | 0.00 | 4.27 | 46 | 1009.7 |
| 20260506162716 | 11 | 169 | 19.3 | 29.0 | 0.00 | 0.00 | 4.27 | 45 | 1009.7 |
| 20260506160923 | 12 | 171 | 19.3 | 27.4 | 0.00 | 0.00 | 4.27 | 45 | 1009.8 |
| 20260506160018 | 12 | 172 | 16.1 | 27.4 | 0.00 | 0.00 | 4.27 | 47 | 1010.0 |
| 20260506155116 | 12 | 156 | 17.7 | 27.4 | 0.00 | 0.00 | 4.27 | 48 | 1010.4 |
| 20260506154216 | 12 | 159 | 19.3 | 25.7 | 0.00 | 0.00 | 4.27 | 50 | 1010.2 |
| 20260506153316 | 11 | 151 | 19.3 | 27.4 | 0.00 | 0.00 | 4.27 | 51 | 1010.2 |
| 20260506152416 | 11 | 154 | 20.9 | 27.4 | 0.00 | 0.00 | 4.27 | 51 | 1010.3 |
| 20260506151516 | 12 | 161 | 17.7 | 25.7 | 0.00 | 0.00 | 4.27 | 52 | 1010.5 |
| 20260506150618 | 13 | 178 | 19.3 | 27.4 | 0.00 | 0.00 | 4.27 | 51 | 1010.4 |
| 20260506145716 | 12 | 174 | 16.1 | 24.1 | 0.00 | 0.00 | 4.27 | 58 | 1010.6 |